Weather History for PABV - January, 2013

Change the Weather History Date:

Monday, January 7, 2013

  Actual Average Record
Temperature  
Mean Temperature 27 °F -  
Max Temperature 35 °F 18 °F 44 °F (2001)
Min Temperature 19 °F 6 °F -27 °F (1997)
Degree Days  
Heating Degree Days 38    
Moisture  
Dew Point 22 °F    
Average Humidity 93    
Maximum Humidity 100    
Minimum Humidity 75    
Precipitation  
Precipitation 0.00 in - - ()
Sea Level Pressure  
Sea Level Pressure 29.18 in    
Wind  
Wind Speed 4 mph (South)    
Max Wind Speed 16 mph    
Max Gust Speed 22 mph    
Visibility 10 miles    
Events      
Averages and records for this station are not official NWS values.
T = Trace of Precipitation, MM = Missing Value Source: NWS Daily Summary

Daily Weather History Graph

Daily Weather History Graph

Search for Another Location

Airport or City:

Trip Planner

Search our weather history database for the weather conditions in past years. The results will help you decide how hot, cold, wet, or windy it might be!

Date:

Astronomy

Jan. 07, 2013 Rise Set
Actual Time 10:08 AM AKST 4:01 PM AKST
Civil Twilight 9:08 AM AKST 5:00 PM AKST
Nautical Twilight 8:10 AM AKST 5:59 PM AKST
Astronomical Twilight 7:16 AM AKST 6:52 PM AKST
Moon 5:23 AM AKST (1/7) 12:36 PM AKST (1/7)
Length of Visible Light 7h 52m
Length of Day
5h 52m
Waning Crescent, 21% of the Moon is Illuminated
Jan 7
Waning Crescent
Jan 11
New
Jan 18
First Quarter
Jan 26
Full
Feb 3
Last Quarter

Hourly Weather History & Observations

Time (AKST) Temp. Windchill Dew Point Humidity Pressure Visibility Wind Dir Wind Speed Gust Speed Precip Events Conditions
12:16 AM 33.8 °F 23.5 °F 26.6 °F 75% 29.05 in 10.0 mi NNE 16.1 mph 20.7 mph N/A   Clear
12:36 AM 35.6 °F 30.7 °F 30.2 °F 81% 29.06 in 10.0 mi South 5.8 mph 21.9 mph N/A   Clear
12:56 AM 32.0 °F 26.4 °F 26.6 °F 80% 29.07 in 10.0 mi SSE 5.8 mph - N/A   Clear
1:16 AM 30.2 °F - 26.6 °F 86% 29.07 in 10.0 mi Calm Calm - N/A   Partly Cloudy
1:36 AM 32.0 °F 27.5 °F 26.6 °F 80% 29.07 in 10.0 mi NE 4.6 mph - N/A   Clear
1:56 AM 30.2 °F 25.4 °F 26.6 °F 86% 29.07 in 10.0 mi SW 4.6 mph - N/A   Clear
2:16 AM 26.6 °F - 24.8 °F 93% 29.07 in 10.0 mi Calm Calm - N/A   Clear
2:36 AM 26.6 °F 21.2 °F 24.8 °F 93% 29.07 in 10.0 mi SSE 4.6 mph - N/A   Clear
2:56 AM 24.8 °F - 23.0 °F 93% 29.07 in 10.0 mi Calm Calm - N/A   Clear
3:16 AM 24.8 °F 20.5 °F 23.0 °F 93% 29.08 in 10.0 mi South 3.5 mph - N/A   Clear
3:36 AM 24.8 °F - 23.0 °F 93% 29.06 in 10.0 mi Calm Calm - N/A   Clear
3:56 AM 26.6 °F 22.6 °F 24.8 °F 93% 29.07 in 10.0 mi SSE 3.5 mph - N/A   Clear
4:16 AM 24.8 °F - 23.0 °F 93% 29.06 in 10.0 mi Calm Calm - N/A   Clear
4:36 AM 24.8 °F - 24.8 °F 100% 29.06 in 10.0 mi Calm Calm - N/A   Clear
4:56 AM 24.8 °F - 23.0 °F 93% 29.06 in 10.0 mi Calm Calm - N/A   Clear
5:16 AM 24.8 °F 20.5 °F 23.0 °F 93% 29.06 in 10.0 mi NE 3.5 mph - N/A   Clear
5:36 AM 24.8 °F - 21.2 °F 86% 29.06 in 10.0 mi Calm Calm - N/A   Clear
5:56 AM 21.2 °F 16.4 °F 21.2 °F 100% 29.06 in 10.0 mi ENE 3.5 mph - N/A   Clear
6:16 AM 21.2 °F 11.7 °F 21.2 °F 100% 29.07 in 10.0 mi SSW 8.1 mph - N/A   Clear
6:36 AM 24.8 °F - 24.8 °F 100% 29.07 in 10.0 mi Calm Calm - N/A   Clear
6:56 AM 24.8 °F - 23.0 °F 93% 29.07 in 10.0 mi Calm Calm - N/A   Clear
7:16 AM 24.8 °F 20.5 °F 21.2 °F 86% 29.08 in 10.0 mi South 3.5 mph - N/A   Clear
7:36 AM 23.0 °F - 21.2 °F 93% 29.08 in 10.0 mi Calm Calm - N/A   Clear
7:56 AM 21.2 °F 16.4 °F 21.2 °F 100% 29.09 in 10.0 mi SE 3.5 mph - N/A   Clear
8:16 AM 23.0 °F 18.4 °F 21.2 °F 93% 29.10 in 10.0 mi South 3.5 mph - N/A   Clear
8:36 AM 23.0 °F 18.4 °F 21.2 °F 93% 29.11 in 10.0 mi SE 3.5 mph - N/A   Clear
8:56 AM 23.0 °F - 21.2 °F 93% 29.11 in 10.0 mi Calm Calm - N/A   Clear
9:16 AM 21.2 °F 16.4 °F 19.4 °F 93% 29.12 in 10.0 mi SE 3.5 mph - N/A   Clear
9:36 AM 21.2 °F - 19.4 °F 93% 29.13 in 10.0 mi Calm Calm - N/A   Clear
9:56 AM 21.2 °F - 19.4 °F 93% 29.14 in 10.0 mi Calm Calm - N/A   Clear
10:16 AM 19.4 °F - 17.6 °F 93% 29.14 in 10.0 mi Calm Calm - N/A   Clear
10:36 AM 19.4 °F 12.8 °F 19.4 °F 100% 29.14 in 10.0 mi ESE 4.6 mph - N/A   Clear
10:56 AM 19.4 °F - 19.4 °F 100% 29.14 in 10.0 mi Calm Calm - N/A   Clear
11:16 AM 19.4 °F 10.4 °F 19.4 °F 100% 29.16 in 10.0 mi South 6.9 mph - N/A   Clear
11:36 AM 21.2 °F 16.4 °F 21.2 °F 100% 29.16 in 10.0 mi SSE 3.5 mph - N/A   Clear
11:56 AM 21.2 °F 10.9 °F 19.4 °F 93% 29.17 in 10.0 mi SSW 9.2 mph - N/A   Clear
12:16 PM 23.0 °F 18.4 °F 21.2 °F 93% 29.17 in 10.0 mi South 3.5 mph - N/A   Clear
12:36 PM 23.0 °F 18.4 °F 23.0 °F 100% 29.18 in 10.0 mi South 3.5 mph - N/A   Clear
12:56 PM 24.8 °F - 24.8 °F 100% 29.18 in 10.0 mi Calm Calm - N/A   Clear
1:16 PM 24.8 °F - 21.2 °F 86% 29.18 in 10.0 mi Calm Calm - N/A   Clear
1:36 PM 21.2 °F - 19.4 °F 93% 29.19 in 10.0 mi Calm Calm - N/A   Clear
2:16 PM 21.2 °F - 21.2 °F 100% 29.19 in 10.0 mi Calm Calm - N/A   Clear
2:36 PM 21.2 °F 16.4 °F 19.4 °F 93% 29.20 in 10.0 mi SW 3.5 mph - N/A   Clear
2:56 PM 23.0 °F 14.7 °F 21.2 °F 93% 29.21 in 10.0 mi SSW 6.9 mph - N/A   Clear
3:16 PM 24.8 °F 17.9 °F 21.2 °F 86% 29.22 in 10.0 mi South 5.8 mph - N/A   Clear
3:36 PM 24.8 °F 19.1 °F 21.2 °F 86% 29.23 in 10.0 mi SSW 4.6 mph - N/A   Clear
3:56 PM 24.8 °F 20.5 °F 21.2 °F 86% 29.23 in 10.0 mi South 3.5 mph - N/A   Clear
4:16 PM 24.8 °F 20.5 °F 21.2 °F 86% 29.23 in 10.0 mi SSW 3.5 mph - N/A   Clear
4:36 PM 24.8 °F - 21.2 °F 86% 29.24 in 10.0 mi Calm Calm - N/A   Clear
4:56 PM 23.0 °F - 21.2 °F 93% 29.25 in 10.0 mi Calm Calm - N/A   Clear
5:16 PM 23.0 °F - 21.2 °F 93% 29.25 in 10.0 mi Calm Calm - N/A   Clear
5:36 PM 23.0 °F 18.4 °F 19.4 °F 86% 29.26 in 10.0 mi South 3.5 mph - N/A   Clear
5:56 PM 23.0 °F - 21.2 °F 93% 29.27 in 10.0 mi Calm Calm - N/A   Clear
6:36 PM 21.2 °F - 19.4 °F 93% 29.28 in 10.0 mi Calm Calm - N/A   Partly Cloudy
6:56 PM 21.2 °F - 21.2 °F 100% 29.29 in 10.0 mi Calm Calm - N/A   Partly Cloudy
7:16 PM 23.0 °F - 21.2 °F 93% 29.29 in 10.0 mi Calm Calm - N/A   Mostly Cloudy
7:56 PM 21.2 °F - 21.2 °F 100% 29.30 in 10.0 mi Calm Calm - N/A   Overcast
8:16 PM 21.2 °F - 21.2 °F 100% 29.31 in 10.0 mi Calm Calm - N/A   Overcast
8:36 PM 21.2 °F 16.4 °F 21.2 °F 100% 29.31 in 10.0 mi SSE 3.5 mph - N/A   Overcast
8:56 PM 21.2 °F - 21.2 °F 100% 29.31 in 10.0 mi Calm Calm - N/A   Overcast
9:16 PM 23.0 °F - 21.2 °F 93% 29.32 in 10.0 mi Calm Calm - N/A   Overcast
9:36 PM 21.2 °F 16.4 °F 21.2 °F 100% 29.33 in 10.0 mi SSE 3.5 mph - N/A   Overcast
9:56 PM 21.2 °F 16.4 °F 21.2 °F 100% 29.34 in 10.0 mi South 3.5 mph - N/A   Overcast
10:16 PM 23.0 °F - 21.2 °F 93% 29.35 in 10.0 mi Calm Calm - N/A   Overcast
10:36 PM 21.2 °F 14.9 °F 21.2 °F 100% 29.36 in 10.0 mi South 4.6 mph - N/A   Mostly Cloudy
10:56 PM 21.2 °F 16.4 °F 19.4 °F 93% 29.36 in 10.0 mi South 3.5 mph - N/A   Clear
11:16 PM 21.2 °F 12.6 °F 19.4 °F 93% 29.38 in 10.0 mi SW 6.9 mph - N/A   Clear
11:36 PM 21.2 °F 13.6 °F 19.4 °F 93% 29.39 in 10.0 mi South 5.8 mph - N/A   Clear
11:56 PM 21.2 °F 16.4 °F 21.2 °F 100% 29.39 in 10.0 mi South 3.5 mph - N/A   Mostly Cloudy